Hourly Weather Roundup
Issued by NWS Central Illinois

Home | Current Version | Previous Version | Text Only | Print | Product List | Glossary On
Versions: 1 2 3 4 5 6 7 8 9 10 11 12 13 14 15 16 17 18 19 20 21 22 23 24 25 26 27 28 29 30 31 32 33 34 35 36 37 38 39 40 41 42 43 44 45 46 47 48 49 50
000
NZUS43 KILX 190910
HWRILX

AREA WEATHER ROUNDUP
NATIONAL WEATHER SERVICE, LINCOLN IL
400 AM CDT FRI SEP 19 2014


CITY           SKY/WX    TMP DP  RH WIND       PRES   REMARKS
BLOOMINGTON    CLEAR     47  45  93 SE8       30.12F
CHAMPAIGN      CLEAR     49  47  93 E7        30.12F
DECATUR        CLEAR     48  45  89 CALM      30.11F
FLORA          CLEAR     52  50  94 N3        30.10S
GALESBURG      CLEAR     51  49  92 E5        30.11R FOG
JACKSONVILLE   FAIR      50  48  93 E3        30.10S
LACON          CLEAR     51  49  93 CALM      30.11S FOG
LAWRENCEVILLE  CLEAR     54  51  90 NE7       30.11R
LITCHFIELD     CLEAR     52  50  94 E5        30.09F
$$


CITY           SKY/WX    TMP DP  RH WIND       PRES   REMARKS
LINCOLN        CLEAR     49  47  93 CALM      30.09S
MACOMB         CLEAR     46  46 100 CALM      30.11S
MATTOON        CLEAR     50  47  89 CALM      30.10F
MT CARMEL AP   CLEAR     54  50  87 NE3       30.10R
OLNEY-NOBLE AP CLEAR     52  50  93 CALM      30.10S
PARIS          CLEAR     46  46 100 CALM      30.12F FOG
PEORIA         CLEAR     54  49  83 E3        30.11S
PONTIAC        CLEAR     52  52 100 SE5       30.11F FOG
RANTOUL        CLEAR     52  47  84 E3        30.13F
ROBINSON       FOG       48  47  99 CALM      30.12S VSB 1/4
SPRINGFIELD    CLEAR     49  46  90 CALM      30.10F
TAYLORVILLE    CLEAR     50  46  87 E3        30.10F
$$

...REGIONAL REPORTS...


CITY           SKY/WX    TMP DP  RH WIND       PRES   REMARKS
CHICAGO O`HARE CLEAR     55  52  89 SE7       30.14S
KANKAKEE       CLEAR     50  49  94 E6        30.14S
MOLINE         CLEAR     49  47  93 E6        30.10F FOG
MOUNT VERNON   CLEAR     54  46  76 N6        30.09S
PITTSFIELD     CLEAR     51  49  92 CALM      30.09F
QUINCY         CLEAR     54  50  86 SE7       30.07F
ROCKFORD       CLOUDY    56  55  97 SE3       30.16S FOG
$$


CITY           SKY/WX    TMP DP  RH WIND       PRES   REMARKS
BURLINGTON     CLEAR     54  49  83 SE5       30.08F
CEDAR RAPIDS   CLEAR     52  50  93 S5        30.07F
DES MOINES     PTCLDY    57  54  89 S7        30.03S
KIRKSVILLE     CLEAR     53  51  93 SE7       30.06F
OTTUMWA        CLEAR     53  50  89 SE5       30.05F
ST LOUIS       CLEAR     58  53  84 SE6       30.08S
$$


CITY           SKY/WX    TMP DP  RH WIND       PRES   REMARKS
TERRE HAUTE    CLEAR     47  45  93 N3        30.13S
EVANSVILLE     CLEAR     56  50  80 CALM      30.09S
INDIANAPOLIS   CLEAR     54  47  77 E8        30.13F
LAFAYETTE      CLEAR     50  47  89 NE3       30.14S
MADISON        CLOUDY    54  52  93 S12       30.14F
MILWAUKEE      PTCLDY    57  55  93 SE6       30.14F FOG
$$




USA.gov is the U.S. government's official web portal to all federal, state and local government web resources and services.